Location: Home
(42.5358°N, 72.7383°W)
Time: 18:30:57
(UTC-05:00)

A-11 Canister half - Pass Details

Date: 09 December 2021
Orbit: 1524 x 1684 km, 47.3° (Epoch: 23 January)

Event Time Altitude Azimuth Distance (km) Brightness Sun altitude
Rises 08:35:08 0° 287° (WNW) 4,879 11.1 11.5°
Reaches altitude 10° 08:40:58 10° 261° (W) 3,850 10.8 12.2°
Maximum altitude 08:44:26 12° 239° (WSW) 3,633 10.9 12.7°
Drops below altitude 10° 08:47:52 10° 218° (SW) 3,796 11.3 13.1°
Sets 08:53:33 0° 191° (S) 4,737 12.2 13.8°
